sat.trackr.live / text

‹ back to catalog

STARLINK-31679

NORAD 59519 · 2024-073J

PAYLOAD ACTIVE UNKNOWN

§ Identity

Operator
Country
US
Launch date
2024-04-17
Launch site
AFETR
Launch vehicle
Mass (kg)
RCS (m²)

Purposes: comms

External: N2YO · Heavens-Above · Gunter

§ Orbital elements

Epoch: 2026-05-24T23:14:28.876128Z

Period
94.27 min
Inclination
43.0020°
Eccentricity
0.0000915
Mean motion
15.27580723 rev/d
Perigee alt
482.4 km
Apogee alt
483.7 km
Semi-major
6,861.2 km
B*
-6.6029e-5
RAAN
236.6640°
Arg perigee
273.0959°
Mean anomaly
86.9788°
Rev number
11,796

§ Raw data

STARLINK-316791 59519U 24073J   26144.96838977 -.00002078  00000+0 -66029-4 0  99942 59519  43.0020 236.6640 0000915 273.0959  86.9788 15.27580723117967

JSON: /api/v1/satellites/59519 · /tle

For live sub-satellite position, see the globe view (requires WebGL).

§ Visibility from observer

Set your observer location to see the next 7 days of passes ≥ 10°. The values pass through the URL so the page stays shareable.

No JS? Fill the form by hand. The geolocation button needs JavaScript.